Date,TemperatureHighF,TemperatureAvgF,TemperatureLowF,DewpointHighF,DewpointAvgF,DewpointLowF,HumidityHigh,HumidityAvg,HumidityLow,PressureMaxIn,PressureMinIn,WindSpeedMaxMPH,WindSpeedAvgMPH,GustSpeedMaxMPH,PrecipitationSumIn
2014-1-1,42.1,38.5,32.5,41.9,38.5,32.4,100,100,99,30.44,30.28,0,0,0,0.00
2014-1-2,47.8,42.0,0.0,44.5,41.7,39.6,100,92,86,30.28,29.93,0,0,3,0.04
2014-1-3,44.2,39.3,32.9,42.9,37.1,32.7,100,92,78,30.39,30.22,0,0,0,0.01
2014-1-4,42.0,33.3,28.2,37.1,32.1,28.0,100,96,74,30.50,30.39,0,0,5,0.00
2014-1-5,40.4,31.5,26.7,37.3,30.6,26.4,100,96,83,30.54,30.36,0,0,1,0.00
2014-1-6,42.2,33.6,27.6,36.3,31.6,27.4,100,93,66,30.36,30.17,0,0,0,0.00
2014-1-7,45.4,41.7,36.4,45.2,41.4,33.9,100,99,84,30.17,30.03,0,0,10,0.66
2014-1-8,47.5,45.7,43.2,47.4,45.2,42.6,100,98,91,30.04,29.71,0,0,7,0.55
2014-1-9,47.1,43.5,40.4,46.0,41.6,38.8,100,93,85,30.02,29.74,0,0,13,0.15
2014-1-10,50.7,46.9,45.7,49.0,43.9,42.1,96,89,86,30.12,29.57,0,0,0,0.23
2014-1-11,54.7,44.9,39.9,50.4,43.1,38.5,100,94,83,29.82,29.38,0,0,18,1.35
2014-1-12,49.8,45.2,39.6,48.0,43.3,38.6,97,93,86,30.33,29.80,0,0,2,0.21
2014-1-13,51.4,49.6,48.7,48.4,46.9,45.5,92,90,88,30.65,30.33,0,0,0,0.00
2014-1-14,50.7,48.1,45.2,47.8,46.4,44.8,100,94,88,30.70,30.61,0,0,1,0.00
2014-1-15,48.8,42.1,38.3,45.0,41.4,38.0,100,98,83,30.65,30.53,0,0,0,0.00
2014-1-16,41.2,38.5,36.0,40.8,38.3,35.8,100,100,96,30.55,30.40,0,0,0,0.00
2014-1-17,38.9,36.1,34.1,38.9,36.0,34.1,100,100,99,30.40,30.23,0,0,0,0.00
2014-1-18,44.2,36.8,31.9,42.2,36.3,31.8,100,98,89,30.31,30.20,0,0,7,0.01
2014-1-19,40.1,36.8,32.4,40.1,36.7,32.4,100,100,97,30.35,30.20,0,0,0,0.00
2014-1-20,46.5,37.9,32.1,41.4,36.6,31.9,100,95,80,30.38,30.30,0,0,4,0.00
2014-1-21,45.3,37.1,29.4,43.0,36.4,29.3,100,97,85,30.38,30.24,0,0,7,0.01
2014-1-22,45.6,42.7,39.6,44.3,42.0,38.8,100,97,92,30.48,30.37,0,0,0,0.03
2014-1-23,45.7,39.6,33.5,41.3,38.4,33.2,100,96,81,30.51,30.42,0,0,0,0.00
2014-1-24,55.4,38.9,29.5,43.9,35.7,29.5,100,90,54,30.46,30.32,0,0,2,0.01
2014-1-25,51.8,37.3,28.0,42.1,34.7,27.8,100,91,65,30.42,30.30,0,0,16,0.00
2014-1-26,47.8,35.5,27.9,41.2,33.5,27.7,100,93,72,30.30,30.13,0,0,0,0.01
2014-1-27,39.5,34.0,28.6,39.2,33.8,28.4,100,99,99,30.26,30.16,0,0,1,0.00
2014-1-28,48.3,43.2,38.4,44.7,41.8,38.1,100,95,85,30.27,29.92,0,0,0,0.33
2014-1-29,49.0,44.5,42.1,49.0,44.4,41.8,100,100,97,29.92,29.65,0,0,0,1.01
2014-1-30,45.5,42.7,40.3,43.1,40.1,38.8,100,90,79,29.95,29.83,0,0,0,0.04
2014-1-31,41.7,39.2,35.0,40.2,38.5,34.7,100,98,89,30.19,29.95,0,0,1,0.32
2014-2-1,41.7,37.3,31.2,41.3,36.9,31.0,100,99,93,30.22,30.11,0,0,2,0.13
2014-2-2,43.0,34.5,26.9,38.5,31.8,26.7,100,90,70,30.12,29.99,0,0,9,0.01
2014-2-3,37.7,32.8,27.8,31.0,25.4,19.8,96,76,53,30.18,30.04,0,0,24,0.00
2014-2-5,28.8,23.0,15.3,8.8,3.9,-0.1,61,44,33,30.53,30.38,0,0,0,0.00
2014-2-6,27.7,21.5,12.6,14.8,7.1,2.3,82,56,35,30.38,29.83,0,0,0,0.00
2014-2-7,35.1,27.4,22.6,20.7,17.3,11.4,77,66,49,29.99,29.81,0,0,0,0.00
2014-2-8,39.3,30.8,23.5,28.9,21.4,14.7,96,70,45,30.07,29.87,0,0,0,0.00
2014-2-9,35.9,33.0,29.4,34.9,31.8,27.9,100,95,87,30.13,29.99,0,0,11,0.13
2014-2-10,49.2,41.6,33.9,47.4,40.4,33.4,100,96,88,30.09,30.02,0,0,13,0.69
2014-2-11,51.6,46.4,43.3,45.6,43.5,42.1,100,90,74,30.17,29.62,0,0,0,0.59
2014-2-12,52.2,48.4,43.1,49.3,42.7,37.6,100,82,60,29.92,29.50,0,0,23,0.10
2014-2-13,52.9,47.7,43.8,46.1,40.9,33.9,97,78,59,30.09,29.75,0,0,0,0.01
2014-2-14,51.4,47.1,41.2,47.0,42.3,31.8,95,84,53,29.99,29.61,0,0,0,0.25
2014-2-15,49.3,41.5,35.5,46.8,38.5,34.3,97,89,61,29.98,29.29,0,0,0,0.47
2014-2-16,46.7,41.9,37.8,41.6,37.7,34.8,96,85,64,30.00,29.70,0,0,0,1.32
2014-2-17,46.5,41.4,38.0,41.6,39.0,36.6,100,91,76,29.96,29.73,0,0,0,0.22
2014-2-18,45.9,42.6,38.8,44.0,39.9,35.8,96,90,80,29.98,29.57,0,0,0,0.59
2014-2-19,46.2,40.9,36.9,38.4,36.7,35.3,95,85,70,30.16,29.88,0,0,0,0.02
2014-2-20,50.7,44.3,39.0,41.8,39.7,36.9,95,84,64,30.24,30.03,0,0,0,0.10
2014-2-21,41.7,38.8,35.9,38.9,37.0,34.7,100,93,78,30.33,30.23,0,0,0,0.09
2014-2-22,39.7,35.6,31.6,37.8,35.1,31.4,100,98,90,30.27,30.07,0,0,0,0.26
2014-2-23,41.7,38.9,36.5,40.8,38.3,36.2,100,98,94,30.08,29.97,0,0,0,0.39
2014-2-24,41.2,38.6,36.1,40.7,38.3,35.8,100,99,94,30.15,30.06,0,0,0,0.45
2014-2-25,53.6,42.8,36.7,43.8,37.8,34.6,100,84,57,30.17,30.02,0,0,0,0.01
2014-2-26,58.9,46.2,35.9,40.6,36.4,32.5,92,71,45,30.03,29.73,0,0,0,0.00
2014-2-27,53.6,45.6,39.0,42.9,39.7,35.6,93,80,62,29.78,29.67,0,0,0,0.00
2014-2-28,55.6,45.4,35.5,44.8,39.0,30.1,100,79,56,29.77,29.54,0,0,0,0.00
2014-3-1,42.1,37.9,34.9,34.0,30.4,27.3,86,74,61,29.72,29.57,0,0,0,0.02
2014-3-2,46.9,38.5,34.0,46.6,37.1,30.8,100,95,82,29.75,29.58,0,0,14,0.90
2014-3-3,55.2,48.8,45.0,52.2,46.0,44.3,100,91,71,29.92,29.71,0,0,0,0.39
2014-3-4,51.3,47.6,41.4,50.6,46.9,41.1,100,98,91,29.98,29.84,0,0,0,0.46
2014-3-5,59.4,52.1,47.9,55.2,50.9,47.6,100,96,82,29.84,29.46,0,0,0,1.63
2014-3-6,54.8,50.7,48.6,50.1,47.2,45.8,97,88,77,30.09,29.52,0,0,0,0.26
2014-3-7,57.5,50.5,43.4,46.5,44.5,40.4,90,81,62,30.30,30.09,0,0,0,0.00
2014-3-8,53.3,46.8,39.6,53.3,45.6,38.3,100,96,82,30.15,29.76,0,0,0,1.22
2014-3-9,59.1,52.2,47.5,52.9,49.5,47.2,100,91,71,30.05,29.84,0,0,0,0.29
2014-3-10,50.0,46.2,42.4,47.2,44.9,41.3,100,95,81,30.49,29.97,0,0,0,0.42
2014-3-11,56.8,45.9,36.7,43.9,39.7,34.0,100,81,44,30.62,30.48,0,0,0,0.01
2014-3-12,61.2,45.6,32.9,43.5,37.4,32.1,100,77,34,30.47,30.19,0,0,16,0.00
2014-3-13,57.6,45.9,34.8,46.4,40.4,33.9,100,83,56,30.21,30.03,0,0,0,0.04
2014-3-14,58.6,49.4,44.5,49.3,44.9,40.4,100,85,55,30.37,29.93,0,0,0,0.51
2014-3-15,61.2,49.2,42.4,51.9,43.6,39.6,97,82,53,30.37,30.20,0,0,0,0.33
2014-3-16,51.8,45.5,39.3,50.8,45.3,39.3,100,99,96,30.24,30.01,0,0,0,1.57
2014-3-17,48.7,41.7,37.5,41.7,38.2,35.1,100,88,63,30.37,30.01,0,0,0,0.08
2014-3-18,49.2,43.6,37.5,44.3,39.9,35.2,95,87,74,30.38,30.20,0,0,0,0.00
2014-3-19,52.5,42.9,34.0,45.5,40.9,34.0,100,93,71,30.25,30.04,0,0,0,0.70
2014-3-20,50.2,39.3,31.1,39.1,34.6,30.9,100,85,50,30.40,30.25,0,0,5,0.01
2014-3-21,50.5,39.5,29.6,36.6,33.3,28.7,100,81,45,30.40,30.32,0,0,0,0.01
2014-3-22,53.1,40.5,28.5,37.6,32.7,27.7,100,77,41,30.36,30.24,0,0,0,0.00
2014-3-23,54.3,45.1,38.7,39.0,37.3,36.2,92,76,53,30.37,30.28,0,0,0,0.00
2014-3-24,71.4,52.8,36.7,43.6,37.0,30.7,97,62,23,30.28,29.91,0,0,0,0.00
2014-3-25,57.0,50.9,46.1,50.1,42.8,32.5,95,75,41,29.92,29.55,0,0,0,0.34
2014-3-26,53.8,46.8,42.3,45.7,42.7,39.4,95,86,63,29.66,29.55,0,0,0,0.12
2014-3-27,54.1,47.5,43.5,46.3,43.8,42.5,97,88,68,29.92,29.60,0,0,0,0.04
2014-3-28,50.6,46.7,43.8,49.5,44.6,40.7,97,93,84,29.93,29.72,0,0,0,0.69
2014-3-29,50.6,46.4,44.7,46.5,44.2,42.6,97,92,81,29.84,29.73,0,0,0,0.53
2014-3-30,54.2,46.6,39.3,43.8,40.5,36.9,95,80,54,30.03,29.84,0,0,0,0.00
2014-3-31,62.1,47.0,32.1,41.9,37.8,32.1,100,75,35,30.02,29.75,0,0,0,0.01
2014-4-1,59.8,48.9,38.3,42.6,39.3,32.3,97,73,36,29.94,29.75,0,0,0,0.00
2014-4-2,58.1,48.6,40.0,43.7,40.2,36.1,97,75,46,30.05,29.94,0,0,0,0.00
2014-4-3,57.6,47.6,39.6,46.5,41.8,37.6,94,81,49,30.04,29.92,0,0,0,0.10
2014-4-4,56.6,49.2,43.9,43.2,41.3,37.8,90,76,51,30.00,29.94,0,0,0,0.00
2014-4-5,51.6,48.4,44.0,50.0,46.4,42.4,97,93,83,30.13,29.99,0,0,0,0.32
2014-4-6,56.9,50.8,45.6,49.7,46.5,44.6,100,86,69,30.33,30.13,0,0,0,0.00
2014-4-7,72.8,60.1,50.1,51.6,49.2,46.2,95,70,40,30.34,30.09,0,0,0,0.00
2014-4-8,62.4,54.0,45.0,52.9,49.0,45.0,100,84,63,30.19,30.08,0,0,0,0.50
2014-4-9,57.7,48.2,40.1,45.1,41.1,34.5,100,79,44,30.31,30.19,0,0,1,0.02
2014-4-10,57.9,48.2,39.2,41.7,39.8,37.3,94,74,50,30.32,30.19,0,0,0,0.00
2014-4-11,59.7,49.4,38.0,46.5,42.6,37.0,97,79,59,30.20,30.06,0,0,0,0.00
2014-4-12,60.9,50.3,41.7,46.0,42.5,39.3,93,76,48,30.21,30.10,0,0,0,0.00
2014-4-13,70.1,53.6,36.4,45.3,36.5,27.9,100,60,24,30.34,30.20,0,0,0,0.00
2014-4-14,70.3,52.9,36.8,44.5,37.8,30.2,90,61,25,30.20,30.07,0,0,0,0.00
2014-4-15,60.0,51.2,44.1,45.2,41.4,34.8,92,71,39,30.24,30.10,0,0,0,0.03
2014-4-16,51.9,49.3,47.3,49.7,47.4,44.9,100,93,86,30.11,29.96,0,0,0,0.54
2014-4-17,52.8,49.6,43.7,51.2,48.9,43.7,100,98,91,29.96,29.74,0,0,0,1.23
2014-4-18,57.1,47.7,41.7,43.5,41.0,37.2,100,80,50,30.15,29.94,0,0,0,0.22
2014-4-19,54.9,45.7,38.4,49.6,42.4,36.4,96,89,64,30.20,29.80,0,0,0,0.36
2014-4-20,61.6,52.0,44.1,43.3,40.5,34.6,90,68,41,30.33,30.16,0,0,0,0.00
2014-4-21,64.0,51.5,43.7,48.0,43.8,41.3,96,77,49,30.16,29.87,0,0,0,0.15
2014-4-22,56.4,46.3,40.1,45.2,41.1,38.1,97,84,55,29.93,29.87,0,0,0,0.63
2014-4-23,53.4,47.5,43.1,46.0,43.0,40.7,96,85,66,29.93,29.68,0,0,0,0.22
2014-4-24,56.5,51.1,45.1,49.7,45.5,41.2,97,82,59,29.93,29.62,0,0,0,0.24
2014-4-25,59.4,48.7,38.8,43.5,39.6,36.4,100,73,45,29.93,29.84,0,0,0,0.00
2014-4-26,60.1,49.3,42.0,44.1,38.9,29.0,95,71,34,29.87,29.67,0,0,0,0.19
2014-4-27,54.5,47.6,43.2,44.6,41.8,39.6,95,81,61,30.14,29.67,0,0,0,0.07
2014-4-28,62.9,51.0,39.9,43.3,39.8,35.9,96,68,39,30.40,30.14,0,0,0,0.00
2014-4-29,77.9,61.2,43.1,46.9,37.8,31.1,91,50,19,30.52,30.39,0,0,0,0.00
2014-4-30,85.8,67.3,46.8,50.0,42.0,35.3,77,44,18,30.42,30.17,0,0,0,0.00
2014-5-1,89.3,68.9,48.5,51.8,46.1,34.5,89,51,15,30.17,29.95,0,0,0,0.00
2014-5-2,70.6,63.5,55.0,55.1,49.5,41.3,87,61,41,30.07,29.92,0,0,0,0.02
2014-5-3,59.2,53.0,49.5,52.1,48.0,43.6,100,84,57,29.96,29.76,0,0,0,1.00
2014-5-4,57.0,51.1,47.7,53.5,49.7,47.3,100,95,81,29.89,29.76,0,0,0,0.45
2014-5-5,61.2,51.2,48.0,52.5,48.8,47.2,97,92,68,30.05,29.89,0,0,0,0.02
2014-5-6,61.1,53.9,47.3,50.7,47.9,45.2,100,81,57,30.08,30.01,0,0,0,0.12
2014-5-7,67.5,48.9,42.3,47.7,44.4,41.3,100,86,45,30.08,29.89,0,0,0,0.00
2014-5-8,58.4,52.1,46.4,53.1,48.6,43.6,100,88,65,29.91,29.66,0,0,0,0.62
2014-5-9,58.1,51.3,46.7,48.0,45.6,43.3,93,81,61,30.03,29.75,0,0,0,0.01
2014-5-10,57.2,50.2,45.2,51.1,46.5,42.9,97,87,72,30.30,30.03,0,0,0,0.13
2014-5-11,66.3,54.0,40.9,50.5,46.7,40.6,100,79,52,30.37,30.28,0,0,0,0.00
2014-5-12,78.8,62.7,45.2,52.0,42.0,27.7,100,56,16,30.39,30.28,0,0,0,0.00
2014-5-13,80.6,66.1,51.9,50.3,46.0,39.4,82,52,24,30.39,30.30,0,0,0,0.00
2014-5-14,84.1,68.0,51.1,55.3,51.5,48.4,91,59,34,30.34,30.11,0,0,0,0.00
2014-5-15,84.0,69.2,54.4,57.8,52.8,36.8,92,59,32,30.12,29.95,0,0,0,0.00
2014-5-16,69.1,60.7,54.3,51.6,49.4,43.3,83,67,49,30.13,30.06,0,0,0,0.00
2014-5-17,67.1,59.6,53.1,51.3,49.2,44.8,93,70,45,30.10,29.89,0,0,0,0.00
2014-5-18,69.6,57.7,47.6,53.4,50.1,46.2,100,77,46,29.93,29.83,0,0,0,0.00
2014-5-19,68.6,59.2,52.4,51.5,49.9,47.4,91,73,50,30.09,29.92,0,0,0,0.00
2014-5-20,71.7,58.9,46.0,53.8,50.1,45.2,100,75,49,30.17,30.09,0,0,0,0.00
2014-5-21,69.0,58.3,50.5,53.6,49.9,46.9,89,75,54,30.21,30.15,0,0,0,0.00
2014-5-22,78.3,63.9,51.2,58.5,53.7,49.3,95,72,48,30.17,30.03,0,0,0,0.00
2014-5-30,69.4,63.9,53.8,51.8,48.7,45.8,78,59,46,30.06,30.00,0,0,0,0.00
2014-5-31,75.9,62.0,45.4,52.9,48.6,44.3,100,65,38,30.11,30.03,0,0,0,0.00
2014-6-1,73.5,65.6,56.7,54.2,52.8,50.4,83,64,49,30.14,29.99,0,0,0,0.44
2014-6-2,76.9,63.8,49.5,56.7,52.2,48.7,100,69,41,30.00,29.86,0,0,0,0.00
2014-6-3,64.8,58.3,51.8,53.3,50.8,47.6,87,77,63,30.12,29.91,0,0,0,0.00
2014-6-4,69.2,59.4,51.9,54.6,51.9,48.8,91,77,59,30.17,30.10,0,0,0,0.00
2014-6-5,74.3,60.4,45.3,53.3,47.9,42.3,100,67,34,30.19,30.08,0,0,0,0.00
2014-6-6,76.1,62.4,45.3,51.8,47.2,43.3,97,62,33,30.16,30.09,0,0,0,0.00
2014-6-7,74.9,63.2,53.6,56.3,52.4,49.3,90,70,44,30.22,30.13,0,0,0,0.00
2014-6-8,75.9,62.6,51.0,57.9,54.4,49.9,97,77,49,30.24,30.09,0,0,0,0.00
2014-6-9,68.9,59.8,53.3,54.5,50.7,46.9,96,74,53,30.18,30.10,0,0,0,0.03
2014-6-10,65.4,59.4,47.5,52.5,50.1,44.5,91,72,61,30.15,30.11,0,0,0,0.00
2014-6-11,76.0,61.7,45.8,52.9,49.4,44.8,100,68,38,30.11,29.85,0,0,0,0.00
2014-6-12,72.4,59.8,52.9,54.5,51.7,48.8,91,76,47,29.90,29.81,0,0,0,0.01
2014-6-13,56.8,54.7,52.2,55.3,51.8,46.6,100,91,71,30.13,29.88,0,0,0,0.53
2014-6-14,61.4,56.2,52.1,53.0,50.2,46.6,95,81,70,30.14,30.01,0,0,0,0.07
2014-6-15,63.7,53.5,48.7,55.8,50.9,47.2,100,91,69,30.01,29.86,0,0,0,0.36
2014-6-16,64.8,54.0,47.0,53.4,48.5,43.0,100,84,48,30.00,29.89,0,0,0,0.25
2014-6-17,64.9,56.0,49.9,54.9,51.6,49.1,100,86,68,30.15,30.00,0,0,0,0.23
2014-6-18,69.2,58.7,52.6,52.8,50.3,48.1,92,74,55,30.15,30.05,0,0,0,0.00
2014-6-19,78.1,64.7,50.9,56.6,53.0,49.3,96,69,41,30.05,29.96,0,0,0,0.00
2014-6-20,65.9,58.0,49.9,56.8,48.9,44.9,96,73,51,30.19,30.04,0,0,0,0.08
2014-6-21,72.5,60.3,45.2,51.2,45.8,40.5,91,62,38,30.18,30.04,0,0,0,0.00
2014-6-22,76.9,63.0,45.2,52.6,48.1,43.3,95,62,36,30.13,30.01,0,0,0,0.00
2014-6-23,79.4,65.9,52.9,57.4,52.0,47.5,88,63,35,30.09,30.00,0,0,0,0.00
2014-6-24,77.5,65.7,57.8,59.6,56.4,54.4,92,74,46,30.13,30.04,0,0,0,0.00
2014-6-25,77.5,66.5,56.0,60.8,57.4,54.2,97,75,47,30.05,29.79,0,0,0,0.00
2014-6-26,72.0,64.0,59.2,61.6,58.1,50.5,100,82,65,29.85,29.79,0,0,0,0.09
2014-6-27,71.9,65.6,55.7,61.2,56.9,51.1,94,74,60,29.92,29.75,0,0,0,0.11
2014-6-28,69.6,62.0,56.0,59.9,55.9,52.8,96,81,64,30.06,29.92,0,0,0,0.05
2014-6-29,69.8,61.4,54.4,58.3,54.7,51.6,95,79,61,30.26,30.06,0,0,0,0.02
2014-6-30,78.1,63.6,49.8,57.5,54.1,49.3,100,75,42,30.27,30.04,0,0,0,0.00
2014-7-1,95.1,75.0,54.6,61.6,57.0,52.6,94,60,27,30.04,29.73,0,0,0,0.00
2014-7-2,81.5,69.5,58.0,60.7,57.1,52.0,88,67,36,30.04,29.77,0,0,0,0.00
2014-7-3,69.9,62.3,56.9,57.1,53.5,48.6,92,74,57,30.13,30.04,0,0,0,0.00
2014-7-4,74.8,63.2,52.7,55.5,51.7,48.2,87,67,47,30.09,30.02,0,0,0,0.00
2014-7-5,77.0,65.5,54.3,59.2,55.2,49.3,94,71,41,30.16,30.05,0,0,0,0.00
2014-7-6,85.3,71.6,60.1,64.3,59.8,56.3,89,69,47,30.17,30.11,0,0,0,0.00
2014-7-7,81.8,68.8,61.1,65.8,62.2,59.4,95,81,57,30.16,30.04,0,0,0,0.00
2014-7-9,84.0,71.8,54.3,60.6,56.7,51.1,91,61,42,30.05,29.93,0,0,0,0.00
2014-7-10,82.8,69.6,54.5,61.1,55.9,49.2,97,66,37,30.00,29.89,0,0,0,0.00
2014-7-11,90.0,73.2,53.3,61.4,57.0,51.6,96,61,31,30.02,29.93,0,0,0,0.00
2014-7-12,73.9,64.8,59.1,62.7,58.6,56.7,93,81,68,30.09,30.01,0,0,0,0.00
2014-7-13,87.4,74.6,59.1,67.3,58.8,50.8,80,59,42,30.12,30.01,0,0,0,0.00
2014-7-14,86.5,73.2,61.8,64.1,60.6,58.2,89,66,44,30.14,30.05,0,0,0,0.00
2014-7-15,88.2,73.5,58.8,65.1,60.1,55.8,95,66,36,30.12,29.98,0,0,0,0.00
2014-7-16,90.8,74.5,56.3,62.5,58.0,54.1,94,60,32,30.02,29.90,0,0,0,0.00
2014-7-17,80.1,68.4,57.2,59.1,56.6,54.1,90,67,43,30.04,29.94,0,0,0,0.00
2014-7-18,77.4,65.5,54.7,59.5,55.3,50.9,89,71,52,30.11,30.02,0,0,0,0.00
2014-7-19,77.4,67.0,59.5,64.3,60.4,56.4,91,80,64,30.08,29.94,0,0,0,0.00
2014-7-20,64.3,58.8,55.6,57.4,55.6,52.5,97,89,73,30.01,29.96,0,0,0,0.12
2014-7-21,76.2,64.1,54.3,56.2,53.5,51.5,100,71,44,30.06,29.98,0,0,0,0.02
2014-7-22,71.8,62.2,53.1,60.1,56.0,51.3,96,81,66,30.10,30.02,0,0,0,0.00
2014-7-23,63.9,59.8,55.7,62.0,58.9,53.8,100,97,87,30.09,29.96,0,0,0,1.53
2014-7-24,59.9,56.6,54.7,58.9,55.6,53.0,100,96,90,30.25,30.08,0,0,0,0.27
2014-7-25,74.6,62.7,54.2,58.9,55.3,51.8,100,79,54,30.23,30.10,0,0,0,0.00
2014-7-26,80.8,65.4,49.8,59.9,55.1,49.0,100,72,48,30.19,30.13,0,0,0,0.00
2014-7-27,82.5,68.2,51.8,60.1,55.5,50.2,96,67,36,30.20,30.08,0,0,0,0.00
2014-7-28,87.4,72.0,54.1,61.0,55.3,51.8,96,60,31,30.14,30.06,0,0,0,0.00
2014-7-29,84.8,70.8,55.0,58.4,55.0,51.3,94,60,36,30.15,30.06,0,0,0,0.00
2014-7-30,83.9,69.8,54.5,60.6,55.4,47.6,97,63,37,30.16,30.09,0,0,0,0.00
2014-7-31,86.8,71.0,53.7,60.2,53.1,47.3,82,55,36,30.13,30.02,0,0,0,0.00
2014-8-1,86.4,71.5,56.2,61.0,56.0,50.1,85,60,40,30.08,29.94,0,0,0,0.00
2014-8-2,83.0,69.6,58.3,65.3,60.6,56.0,92,75,49,30.02,29.95,0,0,0,0.07
2014-8-3,88.9,73.7,59.1,64.6,60.5,55.9,97,67,34,30.08,29.92,0,0,0,0.00
2014-8-4,91.7,74.0,56.2,63.2,58.1,53.9,95,62,32,30.01,29.91,0,0,0,0.00
2014-8-5,78.8,67.4,57.1,60.7,57.2,53.6,93,71,50,30.09,29.96,0,0,0,0.00
2014-8-6,80.3,67.6,57.1,62.9,59.1,54.9,97,76,51,30.17,30.06,0,0,0,0.00
2014-8-7,80.2,67.8,55.9,59.9,56.2,50.8,90,68,45,30.11,30.02,0,0,0,0.00
2014-8-8,78.0,66.2,55.8,56.9,52.7,47.9,85,64,36,30.14,30.06,0,0,0,0.00
2014-8-9,80.7,67.1,52.5,56.1,51.9,48.1,87,60,36,30.18,30.09,0,0,0,0.00
2014-8-10,86.0,69.3,51.4,61.4,55.8,49.3,94,65,41,30.15,29.99,0,0,0,0.00
2014-8-11,99.8,77.8,58.7,67.2,61.0,55.9,92,61,27,30.00,29.79,0,0,0,0.00
2014-8-12,79.7,72.4,66.7,66.4,62.5,58.1,95,72,51,29.91,29.81,0,0,0,0.19
2014-8-13,73.9,65.6,60.1,65.4,61.5,59.2,100,87,67,30.03,29.88,0,0,0,0.81
2014-8-14,69.7,64.1,58.5,63.4,61.2,57.8,100,91,78,30.05,29.98,0,0,0,0.00
2014-8-15,73.9,66.5,62.5,65.3,63.4,61.6,100,90,72,30.08,29.98,0,0,0,0.14
2014-8-16,78.0,68.3,61.7,64.5,61.7,59.1,93,81,61,30.14,30.08,0,0,0,0.00
2014-8-17,80.9,69.9,59.4,64.5,61.9,58.1,96,77,54,30.14,30.05,0,0,0,0.00
2014-8-18,85.2,70.8,57.8,65.9,62.4,56.6,97,77,51,30.06,29.84,0,0,0,0.00
2014-8-19,84.0,71.9,60.8,64.3,60.7,55.2,96,70,48,29.85,29.77,0,0,0,0.00
2014-8-20,72.6,64.4,58.6,56.8,54.4,52.6,83,71,57,30.01,29.84,0,0,0,0.00
2014-8-21,72.8,61.5,52.5,56.5,53.6,50.9,96,77,52,30.07,29.98,0,0,0,0.00
2014-8-22,75.2,62.9,50.7,58.9,55.4,49.9,100,78,55,30.11,30.01,0,0,0,0.00
2014-8-23,83.6,67.6,53.9,62.3,57.2,53.4,100,73,39,30.17,30.01,0,0,0,0.00
2014-8-24,79.6,66.5,55.9,61.2,57.2,54.3,95,74,47,30.01,29.91,0,0,0,0.00
2014-8-25,86.0,69.5,54.8,61.7,57.5,54.0,100,69,37,30.05,29.95,0,0,0,0.00
2014-8-26,89.3,72.5,56.7,62.2,58.5,54.3,96,65,34,30.06,29.97,0,0,0,0.00
2014-8-27,87.5,72.6,59.2,64.6,59.8,56.4,93,67,39,30.05,29.99,0,0,0,0.00
2014-8-28,75.9,66.0,57.6,62.3,59.1,55.9,95,79,62,30.13,30.02,0,0,0,0.00
2014-8-29,71.1,64.1,57.8,60.6,57.9,55.2,97,81,62,30.02,29.94,0,0,0,0.05
2014-8-30,64.3,61.6,57.6,62.2,58.7,55.8,96,90,83,30.00,29.90,0,0,0,0.33
2014-8-31,71.4,61.4,54.5,59.4,55.9,52.8,100,84,53,30.10,30.00,0,0,0,0.16
2014-9-1,75.0,63.7,53.4,58.2,55.0,52.0,97,76,47,30.11,29.99,0,0,0,0.00
2014-9-2,67.8,60.9,55.1,58.6,56.0,54.3,100,85,68,30.00,29.80,0,0,0,0.88
2014-9-3,70.5,59.3,52.8,57.7,54.1,51.4,100,85,55,30.13,29.90,0,0,0,0.19
2014-9-4,74.5,60.0,46.7,57.2,52.8,46.4,100,80,46,30.17,30.08,0,0,0,0.00
2014-9-5,81.5,64.9,50.4,59.3,54.7,49.6,100,74,37,30.18,30.04,0,0,0,0.00
2014-9-6,88.6,68.8,50.6,59.8,53.3,48.6,100,65,26,30.07,29.85,0,0,0,0.00
2014-9-7,86.0,67.5,51.5,59.1,53.8,47.5,100,67,29,29.91,29.80,0,0,0,0.00
2014-9-8,68.3,61.3,56.6,59.1,56.0,53.7,94,83,69,29.96,29.85,0,0,0,0.01
2014-9-9,71.1,61.2,55.3,59.0,55.6,53.5,96,83,60,30.15,29.96,0,0,0,0.07
2014-9-10,70.5,59.4,49.5,56.5,50.4,37.9,100,75,38,30.25,30.14,0,0,0,0.00
2014-9-11,75.9,59.0,44.1,43.4,39.8,34.3,93,55,23,30.33,30.16,0,0,0,0.00
2014-9-12,75.6,58.2,41.4,45.8,40.7,33.3,90,58,23,30.16,29.98,0,0,0,0.00
2014-9-13,82.2,62.2,43.5,50.8,43.4,34.6,96,58,21,30.01,29.86,0,0,0,0.00
2014-9-14,85.1,64.8,46.8,53.1,47.5,43.0,95,60,25,29.93,29.84,0,0,0,0.00
2014-9-15,89.2,67.2,48.7,56.1,50.4,46.8,96,61,26,29.90,29.78,0,0,0,0.00
2014-9-16,74.4,64.2,56.7,59.0,55.7,50.8,88,75,56,29.92,29.83,0,0,0,0.00
2014-9-17,73.3,63.8,58.0,62.2,58.4,56.0,94,83,62,29.89,29.71,0,0,0,0.03
2014-9-18,65.9,62.5,59.2,61.4,59.7,58.4,100,91,80,29.98,29.73,0,0,0,0.05
2014-9-19,75.5,67.1,60.7,60.2,58.9,57.4,89,76,56,30.12,29.99,0,0,0,0.00
2014-9-20,76.4,62.6,55.3,62.3,58.3,54.7,100,87,60,30.13,29.90,0,0,0,0.00
2014-9-21,85.4,64.4,53.2,62.4,57.2,53.1,100,82,40,29.90,29.84,0,0,0,0.00
2014-10-3,75.6,60.1,53.5,56.0,53.2,51.6,94,80,49,30.20,30.17,0,0,0,0.00
2014-10-4,75.6,60.2,52.2,59.3,55.2,51.4,100,85,56,30.22,30.14,0,0,0,0.00
2014-10-5,74.7,54.6,49.9,62.2,53.6,49.6,100,97,62,30.17,30.09,0,0,0,39.34
2014-10-6,77.1,62.6,52.3,63.8,58.4,52.0,100,88,62,30.10,29.99,0,0,0,0.00
2014-10-7,68.3,59.8,56.6,62.8,58.9,56.3,100,97,82,30.00,29.93,0,0,0,0.01
2014-10-8,59.3,57.3,54.8,59.3,57.1,54.5,100,99,96,30.04,29.96,0,0,0,0.00
2014-10-9,67.7,54.6,51.8,60.6,54.0,51.5,100,98,77,30.09,30.02,0,0,0,0.00
2014-10-10,63.3,57.0,48.9,57.3,54.3,48.8,100,91,80,30.10,30.03,0,0,1,0.02
2014-10-11,62.4,57.7,51.7,58.5,55.9,51.4,100,94,74,30.22,30.02,0,0,0,0.22
2014-10-12,64.8,56.5,50.5,58.1,53.9,50.4,100,92,71,30.28,30.07,0,0,0,0.01
2014-10-13,71.7,64.1,49.2,58.5,52.8,48.8,100,69,45,30.07,29.66,0,0,0,0.26
2014-10-14,62.0,55.3,51.4,55.4,53.3,51.1,100,93,74,29.86,29.56,0,0,0,0.76
2014-10-15,57.9,53.8,52.2,54.2,51.9,47.8,100,94,82,30.01,29.53,0,0,0,0.58
2014-10-16,68.2,56.7,49.7,53.1,49.3,45.1,97,78,48,30.06,29.83,0,0,0,0.03
2014-10-17,62.2,58.4,55.5,55.0,50.2,43.1,96,76,51,29.86,29.74,0,0,0,0.16
2014-10-18,64.6,58.9,55.9,63.0,58.3,54.5,100,98,91,29.99,29.82,0,0,0,0.31
2014-10-19,71.6,61.2,54.8,60.6,57.2,54.8,100,88,67,29.82,29.69,0,0,0,0.00
2014-10-20,62.0,57.5,52.5,58.4,56.3,52.1,100,96,86,29.83,29.71,0,0,0,0.58
2014-10-21,62.1,55.7,51.8,53.4,51.8,48.8,100,87,70,29.95,29.75,0,0,0,0.10
2014-10-22,57.3,54.5,52.9,55.1,53.2,48.9,100,95,75,29.75,29.58,0,0,0,1.51
2014-10-23,58.2,50.6,47.3,52.6,49.8,45.9,100,97,77,30.02,29.72,0,0,0,0.34
2014-10-24,56.5,49.8,45.1,52.4,48.3,44.9,100,95,78,30.08,29.72,0,0,0,0.29
2014-10-25,61.2,52.3,45.3,56.0,50.9,45.3,100,95,74,29.76,29.28,0,0,1,0.49
2014-10-26,52.6,48.8,41.8,50.8,46.0,41.5,100,90,79,30.17,29.75,0,0,0,0.24
2014-10-27,60.4,49.4,40.9,48.5,44.2,40.8,100,84,59,30.19,29.99,0,0,0,0.01
2014-10-28,58.7,52.7,48.8,55.2,50.5,42.9,100,92,70,29.99,29.86,0,0,0,0.67
2014-10-29,61.7,55.8,49.1,54.8,53.0,48.5,100,90,75,30.16,29.95,0,0,0,0.14
2014-10-30,62.4,56.3,49.5,56.5,53.1,49.3,100,90,66,30.04,29.74,0,0,0,1.21
2014-10-31,52.9,51.0,48.7,52.8,50.7,48.5,100,99,95,29.91,29.70,0,0,0,1.43
2014-11-1,50.2,46.8,43.5,49.9,46.6,43.3,100,99,94,30.07,29.86,0,0,0,0.01
2014-11-2,54.6,48.8,42.9,50.9,47.9,42.6,100,97,83,30.17,30.07,0,0,1,0.21
2014-11-3,56.0,53.7,51.0,54.8,52.8,50.7,100,97,91,30.14,30.04,0,0,0,0.70
2014-11-4,56.7,52.7,49.2,54.4,52.0,48.9,100,97,91,30.31,30.01,0,0,0,0.13
2014-11-5,57.6,53.7,49.1,56.2,52.8,48.8,100,97,85,30.31,29.98,0,0,0,0.36
2014-11-6,62.5,55.5,49.3,56.9,52.8,46.8,100,91,75,30.32,29.79,0,0,0,0.25
2014-11-7,57.5,48.5,39.0,48.0,44.1,39.0,100,86,58,30.51,30.32,0,0,0,0.00
2014-11-8,54.9,44.1,35.5,47.6,42.2,35.2,100,94,72,30.41,30.07,0,0,0,0.00
2014-11-9,51.0,47.3,44.2,51.0,47.0,44.2,100,99,96,30.09,29.85,0,0,0,0.51
2014-11-10,49.0,42.2,34.9,45.0,41.4,34.7,100,97,84,30.23,30.07,0,0,0,0.01
2014-11-11,44.4,34.7,27.7,37.2,24.9,12.8,100,71,34,30.40,30.20,0,0,0,0.00
2014-11-12,42.9,32.0,22.1,18.3,12.0,6.5,84,47,24,30.40,30.14,0,0,0,0.00
2014-11-13,45.2,33.1,25.0,19.8,12.9,8.8,79,45,24,30.14,30.00,0,0,0,0.00
2014-11-14,42.7,29.7,21.7,23.0,18.9,11.5,88,67,28,30.34,30.06,0,0,0,0.00
2014-11-15,43.6,30.4,20.0,26.3,18.8,14.3,94,66,31,30.58,30.34,0,0,0,0.00
2014-11-16,46.8,33.8,24.2,25.7,21.0,15.8,85,62,31,30.56,30.40,0,0,0,0.00
2014-11-17,52.2,35.6,25.8,29.9,23.5,19.5,89,65,28,30.44,30.22,0,0,0,0.00
2014-11-18,47.5,35.0,28.3,31.2,26.9,22.6,91,73,47,30.22,30.11,0,0,0,0.00
2014-11-19,53.9,42.0,30.0,38.7,33.4,27.4,92,73,45,30.11,29.84,0,0,0,0.00
2014-11-20,50.5,46.4,40.8,47.4,44.1,37.2,97,92,80,30.01,29.90,0,0,0,0.13
2014-11-21,50.1,47.8,45.7,50.1,45.8,44.2,100,93,84,29.92,29.33,0,0,0,0.53
2014-11-22,47.5,45.5,42.8,44.7,42.9,41.6,100,91,87,30.16,29.53,0,0,0,0.03
2014-11-23,50.2,46.5,41.7,50.1,45.4,41.4,100,96,88,30.39,30.09,0,0,0,0.60
2014-11-24,51.9,44.2,37.8,51.8,43.1,37.6,100,96,86,30.40,30.11,0,0,0,0.10
2014-11-25,56.6,51.2,46.9,55.8,50.6,46.6,100,98,92,30.25,30.13,1,0,13,0.50
2014-11-26,59.4,56.8,53.8,54.7,53.6,52.3,97,89,81,30.17,29.88,0,0,0,0.01
2014-11-27,58.6,56.2,53.0,53.0,50.9,45.5,95,83,63,29.89,29.69,0,0,0,0.07
2014-11-28,54.3,43.9,35.9,52.3,43.2,35.3,100,98,90,29.69,29.50,0,0,0,1.77
2014-11-29,36.5,28.9,21.5,36.4,25.9,14.5,100,89,58,30.25,29.55,0,0,0,0.00
2014-11-30,33.6,25.6,18.9,28.1,23.0,17.9,100,90,68,30.28,30.15,0,0,0,0.00
2014-12-1,36.9,27.6,20.6,26.3,22.4,16.7,96,82,56,30.28,30.14,0,0,0,0.00
2014-12-2,37.6,28.2,20.9,31.1,26.0,19.9,100,92,76,30.27,29.97,0,0,0,0.00
2014-12-3,47.0,33.8,25.8,34.4,29.3,24.8,100,85,54,29.97,29.79,0,0,0,0.03
2014-12-4,45.3,40.1,36.0,42.4,37.9,32.4,100,92,79,29.98,29.81,0,0,0,0.09
2014-12-5,56.7,48.4,41.5,46.9,43.3,41.1,100,84,59,30.00,29.77,0,0,0,0.21
2014-12-6,55.0,49.3,45.5,50.2,46.9,43.4,100,91,67,30.26,29.81,0,0,0,0.22
2014-12-7,57.2,49.9,40.0,48.0,42.9,38.7,100,80,51,30.26,30.00,0,0,0,0.00
2014-12-8,58.5,52.1,48.1,48.1,44.4,41.1,95,76,53,30.08,29.88,0,0,0,0.48
2014-12-9,62.1,55.0,49.0,56.1,51.5,47.3,97,88,74,29.92,29.74,0,0,0,0.51
2014-12-10,66.7,55.6,51.6,52.5,49.8,44.5,97,82,50,29.73,29.27,0,0,0,0.50
2014-12-11,57.5,49.9,46.1,49.2,45.3,41.9,100,85,63,29.60,29.17,0,0,0,0.37
2014-12-12,52.1,48.8,43.5,47.0,44.8,42.7,100,86,78,30.08,29.54,0,0,0,0.24
2014-12-13,48.1,42.0,33.5,46.1,41.6,33.2,100,99,89,30.26,30.08,0,0,0,0.00
2014-12-14,51.9,38.7,29.7,45.1,34.1,29.7,100,85,54,30.25,30.03,0,0,0,0.01
2014-12-15,54.6,48.7,39.1,32.6,30.5,28.8,69,50,41,30.03,29.85,0,0,0,0.00
2014-12-16,50.4,47.8,44.9,41.1,35.6,29.7,83,63,45,29.88,29.84,0,0,0,0.01
2014-12-17,48.0,45.0,41.3,44.3,41.0,34.2,100,87,63,29.95,29.82,0,0,0,0.12
2014-12-18,50.0,45.4,42.2,46.5,43.6,41.9,100,94,76,29.98,29.75,0,0,0,0.53
2014-12-19,51.0,46.6,44.4,46.6,43.5,39.1,100,89,76,29.98,29.81,0,0,0,0.14
2014-12-20,55.6,47.7,43.4,53.2,45.7,41.0,100,93,84,29.89,29.45,0,0,0,0.42
2014-12-21,54.3,50.4,47.7,51.1,48.4,46.3,100,93,87,30.14,29.55,0,0,0,0.19
2014-12-22,49.5,44.6,40.3,46.2,42.1,38.5,100,91,76,30.41,30.13,0,0,0,0.00
2014-12-23,54.3,45.2,40.3,51.6,43.2,37.6,100,93,77,30.35,30.08,0,0,0,1.46
2014-12-24,43.1,40.4,38.9,41.8,39.9,38.6,100,98,91,30.09,29.92,0,0,0,0.53
2014-12-25,45.4,39.9,36.7,42.5,39.2,36.4,100,97,85,30.33,30.08,0,0,0,0.28
2014-12-26,42.4,39.3,37.7,39.8,38.5,36.9,100,97,89,30.42,30.31,0,0,0,0.00
2014-12-27,47.4,42.7,39.6,45.0,42.0,38.9,100,97,91,30.35,30.04,0,0,0,0.49
2014-12-28,42.2,38.7,36.6,41.5,38.4,36.3,100,99,95,30.25,30.10,0,0,0,0.19
2014-12-29,40.5,34.7,26.6,36.5,31.9,25.5,100,90,65,30.76,30.19,0,0,0,0.00
2014-12-30,34.4,26.6,22.5,26.0,22.1,18.2,100,84,54,30.89,30.77,0,0,0,0.00
2014-12-31,36.1,27.5,22.1,26.3,23.7,21.1,97,87,63,30.77,30.46,0,0,0,0.00
2015-1-1,39.6,28.6,22.6,30.0,25.5,21.9,100,89,66,30.46,30.24,0,0,0,0.00
2015-1-2,40.8,35.4,28.8,39.0,33.2,27.0,100,92,81,30.25,30.12,0,0,0,0.03